Flag for U.S.A. Weather past 2 weeks in Madison, Wisconsin, U.S.A.

Now
16 °F

Passing clouds.


Feels Like: 16 °F
Forecast: 12 / 28 °F
Wind: No wind

Location: Dane County Regional-Truax Field

Current Time: Jan 26, 2015 at 7:07:01 AM

Latest Report: Jan 26, 2015 at 5:53 AM


Visibility: 10 mi

Pressure: 29.98 "Hg

Humidity: 80%

Dew point: 11 °F

Location of MadisonLocation

Historic Weather in Madison — Graph

°F

Madison temperature yesterday

Maximum temperature yesterday: 32 °F (at 12:53 AM)
Minimum temperature yesterday: 14 °F (at 11:53 PM)
Average temperature yesterday: 23 °F

Past Weeks' High & Low Weather Summary

 TemperatureHumidityPressure
High41 °F (Jan 17, 10:53 AM)96% (Jan 19, 7:53 AM)30.81 "Hg (Jan 19, 7:53 AM)
Low-6 °F (Jan 12, 10:53 PM)52% (Jan 11, 12:53 PM)29.52 "Hg (Jan 17, 1:53 PM)
Average25 °F76%30.09 "Hg
* Reported Jan 11 5:53 AM — Jan 26 5:53 AM, Madison, Weather by CustomWeather, © 2014

Note: Actual official high and low records may vary slightly from our data, if they occured in-between our weather recording intervals... More about our weather records

Advertising

Madison weather history for previous 24 hours

 ConditionsComfort  
Time TempWeatherWind HumidityBarometerVisibility
5:53 AM
Jan 26
16 °FPassing clouds.No wind80%29.98 "Hg10 mi
4:53 AM15 °FPassing clouds.No wind80%29.99 "Hg10 mi
3:53 AM13 °FClear.No wind84%30.01 "Hg10 mi
2:53 AM10 °FClear.No wind88%30.03 "Hg10 mi
1:53 AM11 °FClear.No wind84%30.05 "Hg10 mi
12:53 AM14 °FClear.No wind80%30.06 "Hg10 mi
11:53 PM
Jan 25
14 °FClear.3 mph80%30.07 "Hg10 mi
10:53 PM16 °FPassing clouds.5 mph77%30.08 "Hg10 mi
9:53 PM18 °FPassing clouds.6 mph74%30.08 "Hg10 mi
8:53 PM17 °FPassing clouds.7 mph76%30.11 "Hg10 mi
7:53 PM16 °FPassing clouds.8 mph77%30.09 "Hg10 mi
6:53 PM18 °FPassing clouds.9 mph74%30.08 "Hg10 mi
5:53 PM19 °FPassing clouds.10 mph71%30.06 "Hg10 mi
4:53 PM21 °FScattered clouds.15 mph65%30.04 "Hg10 mi
3:53 PM24 °FScattered clouds.16 mph62%30.02 "Hg10 mi
2:53 PM25 °FPartly sunny.14 mph63%29.98 "Hg10 mi
1:53 PM25 °FBroken clouds.18 mph66%29.97 "Hg10 mi
12:53 PM25 °FPartly sunny.21 mph72%29.97 "Hg10 mi
11:53 AM25 °FMostly cloudy.22 mph69%29.95 "Hg10 mi
10:53 AM24 °FOvercast.18 mph77%29.96 "Hg10 mi
9:53 AM23 °FOvercast.20 mph78%29.93 "Hg10 mi
8:53 AM23 °FLight snow. Overcast.16 mph78%29.90 "Hg9 mi
7:53 AM23 °FLight snow. Mostly cloudy.14 mph85%29.87 "Hg9 mi
Weather by CustomWeather, © 2014

See weather overviewHow to use our weather pages